Location: Ripley
(48.3812°N, 115.4473°W)
Time: 07:41:47
(UTC+00:00)

EO-88 - Pass Details

Date: 01 July 2022
Orbit: 454 x 462 km, 97.3° (Epoch: 07 August)

Event Time Altitude Azimuth Distance (km) Brightness Sun altitude
Exits shadow 06:16:08 - 227° (SW) 1,959 ? -15.8°
Reaches altitude 10° 06:17:35 10° 246° (WSW) 1,628 ? -15.8°
Maximum altitude 06:19:03 12° 271° (W) 1,499 ? -15.9°
Drops below altitude 10° 06:20:29 10° 295° (WNW) 1,627 ? -16.0°
Sets 06:23:42 0° 328° (NNW) 2,515 ? -16.2°
